EN

Hourly Weather La Cure

Today, 3 August, Tuesday

Time Temperature Precipitation Wind Pressure Humidity
00:00 +9°C° 0 mm 1 mps 663 mmHg 85%
01:00 +9°C° 0 mm 1 mps 662 mmHg 83%
02:00 +9°C° 0 mm 1 mps 662 mmHg 82%
03:00 +9°C° 0 mm 1 mps 662 mmHg 81%
04:00 +9°C° 0 mm 1 mps 662 mmHg 80%
05:00 +10°C° 0 mm 1 mps 662 mmHg 79%
06:00 +11°C° 0 mm 1 mps 663 mmHg 78%
07:00 +12°C° 0 mm 2 mps 663 mmHg 75%
08:00 +13°C° 0 mm 2 mps 663 mmHg 73%
09:00 +13°C° 0 mm 3 mps 663 mmHg 71%
10:00 +13°C° 0.2 mm 3 mps 663 mmHg 71%
11:00 +14°C° 0.2 mm 3 mps 663 mmHg 72%
12:00 +14°C° 0.2 mm 4 mps 663 mmHg 72%
13:00 +13°C° 1 mm 3 mps 663 mmHg 79%
14:00 +12°C° 1 mm 2 mps 663 mmHg 86%
15:00 +11°C° 1 mm 1 mps 662 mmHg 93%
16:00 +10°C° 2.2 mm 2 mps 662 mmHg 94%
17:00 +9°C° 2.2 mm 2 mps 662 mmHg 95%
18:00 +9°C° 2.2 mm 2 mps 662 mmHg 96%
19:00 +9°C° 0.6 mm 2 mps 662 mmHg 96%
20:00 +9°C° 0.6 mm 2 mps 662 mmHg 96%
21:00 +10°C° 0.6 mm 1 mps 663 mmHg 96%
22:00 +9°C° 0.4 mm 1 mps 662 mmHg 96%
23:00 +9°C° 0.4 mm 1 mps 662 mmHg 96%

Tomorrow, 4 August, Wednesday

Time Temperature Precipitation Wind Pressure Humidity
00:00 +9°C° 0.4 mm 1 mps 662 mmHg 95%
01:00 +10°C° 0.4 mm 1 mps 661 mmHg 96%
02:00 +10°C° 0.4 mm 1 mps 661 mmHg 96%
03:00 +10°C° 0.4 mm 1 mps 661 mmHg 97%
04:00 +10°C° 0.5 mm 1 mps 661 mmHg 97%
05:00 +10°C° 0.5 mm 1 mps 661 mmHg 98%
06:00 +9°C° 0.5 mm 0 mps 661 mmHg 98%
07:00 +9°C° 1.4 mm 0 mps 661 mmHg 98%
08:00 +10°C° 1.4 mm 0 mps 661 mmHg 98%
09:00 +10°C° 1.4 mm 0 mps 660 mmHg 99%
10:00 +10°C° 3 mm 0 mps 660 mmHg 99%
11:00 +10°C° 3 mm 0 mps 660 mmHg 99%
12:00 +10°C° 3 mm 0 mps 660 mmHg 99%
13:00 +10°C° 1.7 mm 0 mps 661 mmHg 98%
14:00 +10°C° 1.7 mm 0 mps 661 mmHg 98%
15:00 +10°C° 1.7 mm 0 mps 661 mmHg 98%
16:00 +11°C° 1.1 mm 1 mps 661 mmHg 98%
17:00 +11°C° 1.1 mm 1 mps 661 mmHg 98%
18:00 +10°C° 1.1 mm 1 mps 661 mmHg 97%
19:00 +10°C° 0.1 mm 1 mps 661 mmHg 97%
20:00 +10°C° 0.1 mm 1 mps 661 mmHg 96%
21:00 +10°C° 0.1 mm 1 mps 661 mmHg 96%
22:00 +9°C° 0 mm 1 mps 661 mmHg 96%
23:00 +9°C° 0 mm 1 mps 661 mmHg 95%

Day after tomorrow, 5 August, Thursday

Time Temperature Precipitation Wind Pressure Humidity
00:00 +9°C° 0 mm 1 mps 661 mmHg 95%
01:00 +9°C° 0.2 mm 1 mps 660 mmHg 95%
02:00 +9°C° 0.2 mm 1 mps 660 mmHg 96%
03:00 +10°C° 0.2 mm 1 mps 660 mmHg 96%
04:00 +9°C° 0.4 mm 2 mps 660 mmHg 96%
05:00 +9°C° 0.4 mm 2 mps 660 mmHg 97%
06:00 +9°C° 0.4 mm 2 mps 660 mmHg 97%
07:00 +9°C° 0.3 mm 2 mps 660 mmHg 97%
08:00 +10°C° 0.3 mm 2 mps 661 mmHg 97%
09:00 +10°C° 0.3 mm 2 mps 661 mmHg 96%
10:00 +10°C° 0.2 mm 2 mps 661 mmHg 93%
11:00 +12°C° 0.2 mm 2 mps 661 mmHg 90%
12:00 +13°C° 0.2 mm 2 mps 661 mmHg 87%
13:00 +13°C° 0.1 mm 2 mps 661 mmHg 82%
14:00 +14°C° 0.1 mm 2 mps 661 mmHg 76%
15:00 +15°C° 0.1 mm 2 mps 661 mmHg 71%
16:00 +14°C° 0 mm 1 mps 661 mmHg 74%
17:00 +14°C° 0 mm 1 mps 661 mmHg 76%
18:00 +13°C° 0 mm 1 mps 661 mmHg 79%
19:00 +12°C° 0 mm 1 mps 661 mmHg 80%
20:00 +11°C° 0 mm 1 mps 660 mmHg 81%
21:00 +10°C° 0 mm 1 mps 660 mmHg 82%
22:00 +10°C° 0 mm 1 mps 660 mmHg 80%
23:00 +11°C° 0 mm 1 mps 660 mmHg 77%

6 August, Friday

Time Temperature Precipitation Wind Pressure Humidity
00:00 +11°C° 0 mm 1 mps 660 mmHg 75%
01:00 +11°C° 0 mm 1 mps 660 mmHg 77%
02:00 +10°C° 0 mm 1 mps 659 mmHg 78%
03:00 +9°C° 0 mm 2 mps 659 mmHg 80%
04:00 +9°C° 0 mm 2 mps 659 mmHg 80%
05:00 +10°C° 0 mm 2 mps 660 mmHg 81%
06:00 +10°C° 0 mm 2 mps 660 mmHg 81%
07:00 +12°C° 0 mm 3 mps 660 mmHg 76%
08:00 +13°C° 0 mm 3 mps 661 mmHg 71%
09:00 +16°C° 0 mm 3 mps 661 mmHg 66%
10:00 +17°C° 0 mm 3 mps 661 mmHg 62%
11:00 +18°C° 0 mm 4 mps 661 mmHg 57%
12:00 +19°C° 0 mm 4 mps 661 mmHg 52%
13:00 +19°C° 0 mm 4 mps 661 mmHg 52%
14:00 +19°C° 0 mm 3 mps 661 mmHg 51%
15:00 +19°C° 0 mm 3 mps 661 mmHg 51%
16:00 +18°C° 0 mm 2 mps 661 mmHg 59%
17:00 +17°C° 0 mm 2 mps 660 mmHg 68%
18:00 +16°C° 0 mm 1 mps 660 mmHg 76%
19:00 +15°C° 0 mm 1 mps 660 mmHg 76%
20:00 +14°C° 0 mm 1 mps 659 mmHg 75%
21:00 +13°C° 0 mm 1 mps 659 mmHg 75%
22:00 +13°C° 0 mm 1 mps 659 mmHg 75%
23:00 +13°C° 0 mm 1 mps 659 mmHg 74%

7 August, Saturday

Time Temperature Precipitation Wind Pressure Humidity
00:00 +13°C° 0 mm 1 mps 659 mmHg 74%
01:00 +12°C° 0.1 mm 1 mps 658 mmHg 77%
02:00 +12°C° 0.1 mm 1 mps 658 mmHg 81%
03:00 +12°C° 0.1 mm 1 mps 658 mmHg 85%
04:00 +12°C° 0.4 mm 1 mps 658 mmHg 87%
05:00 +11°C° 0.4 mm 0 mps 658 mmHg 90%
06:00 +11°C° 0.4 mm 0 mps 658 mmHg 92%
07:00 +13°C° 2.5 mm 1 mps 658 mmHg 93%
08:00 +13°C° 2.5 mm 1 mps 658 mmHg 94%
09:00 +13°C° 2.5 mm 1 mps 658 mmHg 95%
10:00 +13°C° 8.8 mm 1 mps 658 mmHg 96%
11:00 +13°C° 8.8 mm 1 mps 658 mmHg 98%
12:00 +12°C° 8.8 mm 1 mps 659 mmHg 99%
13:00 +12°C° 5.3 mm 1 mps 659 mmHg 98%
14:00 +12°C° 5.3 mm 1 mps 660 mmHg 98%
15:00 +12°C° 5.3 mm 1 mps 660 mmHg 97%
16:00 +11°C° 1.4 mm 1 mps 660 mmHg 97%
17:00 +11°C° 1.4 mm 1 mps 661 mmHg 96%
18:00 +11°C° 1.4 mm 1 mps 661 mmHg 96%
19:00 +11°C° 0.2 mm 1 mps 661 mmHg 95%
20:00 +11°C° 0.2 mm 1 mps 661 mmHg 94%
21:00 +9°C° 0.2 mm 2 mps 662 mmHg 94%
22:00 +10°C° 0.1 mm 1 mps 662 mmHg 94%
23:00 +10°C° 0.1 mm 1 mps 662 mmHg 94%

8 August, Sunday

Time Temperature Precipitation Wind Pressure Humidity
00:00 +10°C° 0.1 mm 1 mps 662 mmHg 94%
01:00 +10°C° 0 mm 1 mps 662 mmHg 94%
02:00 +10°C° 0 mm 1 mps 662 mmHg 94%
03:00 +10°C° 0 mm 1 mps 663 mmHg 94%
04:00 +10°C° 0 mm 1 mps 663 mmHg 94%
05:00 +10°C° 0 mm 1 mps 663 mmHg 94%
06:00 +11°C° 0 mm 1 mps 664 mmHg 94%
07:00 +12°C° 0 mm 1 mps 665 mmHg 86%
08:00 +13°C° 0 mm 1 mps 665 mmHg 78%
09:00 +15°C° 0 mm 1 mps 666 mmHg 70%
10:00 +16°C° 0 mm 1 mps 666 mmHg 64%
11:00 +17°C° 0 mm 2 mps 666 mmHg 59%
12:00 +18°C° 0 mm 2 mps 667 mmHg 54%
13:00 +18°C° 0 mm 2 mps 667 mmHg 53%
14:00 +18°C° 0 mm 2 mps 667 mmHg 53%
15:00 +18°C° 0 mm 2 mps 667 mmHg 52%
16:00 +17°C° 0 mm 2 mps 667 mmHg 61%
17:00 +15°C° 0 mm 1 mps 667 mmHg 69%
18:00 +14°C° 0 mm 1 mps 667 mmHg 77%
19:00 +13°C° 0 mm 1 mps 667 mmHg 80%
20:00 +11°C° 0 mm 1 mps 667 mmHg 82%
21:00 +10°C° 0 mm 1 mps 667 mmHg 84%
22:00 +10°C° 0 mm 1 mps 667 mmHg 84%
23:00 +9°C° 0 mm 1 mps 667 mmHg 83%
Show more